Regional Weather Roundup
Issued by NWS

Home | Current Version | Previous Version | Graphics & Text | Print | Product List | Glossary On
Versions: 1 2 3 4 5 6 7 8 9 10 11 12 13 14 15 16 17 18 19 20 21 22 23 24 25 26 27 28 29 30 31 32 33 34 35 36 37 38 39 40 41 42 43 44 45 46 47 48 49 50
000
ASUS43 KOAX 041510
RWRNE

WEATHER ROUNDUP FOR NEBRASKA
NATIONAL WEATHER SERVICE OMAHA NE
1000 AM CDT MON MAY 04 2015

NOTES: SATELLITE DATA IS BEING USED TO AUGMENT CLOUD COVER ABOVE
       12000 FEET.
       "FAIR" INDICATES FEW OR NO CLOUDS BELOW 12,000 FEET WITH NO
       SIGNIFICANT WEATHER AND/OR OBSTRUCTIONS TO VISIBILITY.

  * THESE STATIONS DO NOT REPORT WEATHER SUCH AS RAIN...SNOW OR FOG.

NEZ001>004-019>022-054>056-041600-
NEBRASKA PANHANDLE

CITY           SKY/WX    TMP DP  RH WIND       PRES   REMARKS
SCOTTSBLUFF    CLOUDY    49  42  77 E8        30.16R
ALLIANCE       CLOUDY    50  39  66 E5        30.16R
CHADRON        CLOUDY    47  43  86 NE9       30.17F
KIMBALL        CLOUDY    47  41  78 SE10      30.15R
SIDNEY         CLOUDY    50  34  54 E10       30.16R
$$

NEZ057>060-069>072-079>082-041600-
SOUTHWEST NEBRASKA

CITY           SKY/WX    TMP DP  RH WIND       PRES   REMARKS
NORTH PLATTE   CLOUDY    57  32  38 E16       30.14R
IMPERIAL       CLOUDY    54  36  50 NE8       30.13R
LEXINGTON      CLOUDY    58  36  43 NE15      30.10R
MCCOOK         CLOUDY    58  38  47 NE14      30.08R
OGALLALA       CLOUDY    56  30  36 E13       30.15R
$$

NEZ005>010-023>029-035>040-094-041600-
NORTH CENTRAL NEBRASKA

CITY           SKY/WX    TMP DP  RH WIND       PRES   REMARKS
VALENTINE      CLOUDY    58  25  28 E16       30.17S
AINSWORTH      CLOUDY    57  26  30 E13G21    30.16F
BROKEN BOW     CLOUDY    59  30  33 NE16G22   30.13R
O`NEILL        CLOUDY    57  32  38 NE13G21   30.16S
ORD            CLOUDY    59  29  31 E15G22    30.11R
THEDFORD       PTSUNNY   59  28  30 NE18      30.16R
$$

NEZ041-046>049-061>064-073>077-083>087-041600-
SOUTH CENTRAL NEBRASKA

CITY           SKY/WX    TMP DP  RH WIND       PRES   REMARKS
GRAND ISLAND   CLOUDY    59  34  39 NE18G31   30.05R
AURORA         CLOUDY    57  42  55 NE24      30.03S
HASTINGS       CLOUDY    57  43  59 E9        30.08R
HEBRON         LGT RAIN  60  53  77 E8        30.05R
HOLDREGE       CLOUDY    55  42  62 NE13      30.08R
KEARNEY *      CLOUDY    57  39  51 N13       30.09R
YORK           CLOUDY    57  45  62 NE24G30   30.04R
$$

NEZ011>018-030>034-042>045-041600-
NORTHEAST NEBRASKA

CITY           SKY/WX    TMP DP  RH WIND       PRES   REMARKS
NORFOLK        CLOUDY    60  36  40 NE10      30.12R
ALBION         CLOUDY    59  31  34 NE13      30.11S
BLAIR          CLOUDY    59  47  64 N5        30.10R
COLUMBUS *     CLOUDY    54  39  58 NE12      30.12F
FREMONT        CLOUDY    60  45  55 CALM      30.11R
TEKAMAH        CLOUDY    62  42  47 N16       30.07F
WAYNE          PTSUNNY   59  37  43 NE17      30.13R
$$

NEZ050>053-065>068-078-088>093-041600-
SOUTHEAST NEBRASKA

CITY           SKY/WX    TMP DP  RH WIND       PRES   REMARKS
LINCOLN        LGT RAIN  56  51  84 NE15      30.05F
OMAHA EPPLEY   CLOUDY    63  50  62 NW9       30.08R
BEATRICE       LGT RAIN  59  55  87 NE14      30.03F
FALLS CITY     CLOUDY    67  59  75 E5        30.02R
NEBRASKA CITY  CLOUDY    60  58  92 N10       30.05R
PLATTSMOUTH    CLOUDY    60  53  75 N5        30.06R
$$

NEZ044-045-051>053-067-041600-
OMAHA AREA

CITY           SKY/WX    TMP DP  RH WIND       PRES   REMARKS
OMAHA EPPLEY   CLOUDY    63  50  62 NW9       30.08R
BLAIR          CLOUDY    59  47  64 N5        30.10R
FREMONT        CLOUDY    60  45  55 CALM      30.11R
MILLARD        CLOUDY    62  51  67 CALM      30.09R
PLATTSMOUTH    CLOUDY    60  53  75 N5        30.06R
$$


USA.gov is the U.S. government's official web portal to all federal, state and local government web resources and services.